DateTimeUTC,F1_A11,F1_S11,BsB_S11,BsG_S11,BsR_S11,BbsB_S11,BbsG_S11,BbsR_S11,BaB_A11,BaG_A11,BaR_A11,Tu_S11,T_S11,Uu_S11,U_S11,P_S11,T1_A11
2021-12-17T23:00:00Z,00000200,21000000,,,,,,,-000.01,-000.02,0000.10,18.2,25.4,,00.0,0655.1,31.0
2021-12-17T23:01:00Z,00000200,21000000,,,,,,,-000.02,-000.17,-000.28,18.2,25.4,,00.0,0655.0,31.0
2021-12-17T23:02:00Z,00000200,21000000,,,,,,,-000.42,0000.05,-000.14,18.1,25.4,,00.0,0655.0,31.0
2021-12-17T23:03:00Z,00000200,61000000,,,,,,,0000.26,-000.22,0000.23,18.1,25.4,,00.0,0655.0,31.0
2021-12-17T23:04:00Z,00000200,41000000,-000.40,0000.29,0000.01,-000.55,-000.05,-000.05,-000.04,0000.15,0000.01,18.4,25.3,,00.0,0656.0,31.0
2021-12-17T23:05:00Z,00000200,01000000,0000.23,0000.46,0000.03,0000.13,0000.16,-000.17,0000.17,-000.10,-000.13,18.5,25.2,,00.0,0656.0,31.0
2021-12-17T23:06:00Z,00000200,01000000,0000.07,0000.16,0000.24,0000.50,0000.50,0000.37,-000.10,0000.25,-000.15,18.5,25.2,,00.0,0656.0,31.0
2021-12-17T23:07:00Z,00000200,01000000,0000.85,0000.13,0000.06,0000.25,-000.05,0000.02,-000.16,-000.06,-000.02,18.5,25.2,,00.0,0656.0,31.0
2021-12-17T23:08:00Z,00000200,01000000,-000.72,0000.04,0000.14,0000.05,0000.19,0000.03,0000.29,0000.00,0000.33,18.5,25.2,,00.0,0656.0,31.0
2021-12-17T23:09:00Z,00000200,01000000,0000.15,0000.19,-000.19,0000.43,-000.12,0000.30,0000.15,0000.19,0000.02,18.5,25.2,,00.0,0656.0,31.0
2021-12-17T23:10:00Z,00000200,01000000,0000.22,0000.11,0000.08,-000.23,-000.05,0000.07,0000.11,0000.05,0000.24,18.5,25.2,,00.0,0656.1,31.0
2021-12-17T23:11:00Z,00000200,01000000,-000.06,0000.29,-000.07,0000.60,-000.23,0000.28,-000.06,0000.10,-000.21,18.5,25.2,,00.0,0656.1,31.0
2021-12-17T23:12:00Z,00000200,01000000,0000.28,-000.18,0000.40,-000.15,0000.17,0000.40,0000.21,-000.01,0000.37,18.5,25.2,,00.0,0656.1,31.0
2021-12-17T23:13:00Z,00000200,01000000,0001.57,0000.17,0000.16,0000.02,-000.02,0000.56,-000.17,-000.07,-000.30,18.5,25.2,,00.0,0656.1,31.0
2021-12-17T23:14:00Z,00000200,01000000,-000.58,0000.47,0000.20,0000.18,0000.30,0000.26,0000.17,-000.08,0000.19,18.5,25.2,,00.0,0656.1,31.0
2021-12-17T23:15:00Z,00000200,01000000,0000.12,-000.18,0000.04,0000.22,0000.27,0000.24,0000.04,0000.29,0000.00,18.6,25.2,,00.0,0656.2,31.0
2021-12-17T23:16:00Z,00000200,01000000,0000.20,0000.13,0000.27,-000.04,0000.05,0000.39,-000.28,-000.13,0000.20,18.6,25.2,,00.0,0656.2,31.0
2021-12-17T23:17:00Z,00000200,01000000,0000.01,0000.15,-000.19,0000.66,0000.18,-000.18,0000.71,0000.27,0000.02,18.6,25.2,,00.0,0656.2,31.0
2021-12-17T23:18:00Z,00000200,01000000,-000.27,0000.10,0000.07,-000.38,0000.39,-000.12,-000.16,-000.00,-000.18,18.6,25.2,,00.0,0656.2,31.0
2021-12-17T23:19:00Z,00000200,01000000,0000.14,0000.33,-000.04,0000.63,0000.57,0000.46,0000.14,0000.23,0000.37,18.6,25.2,,00.0,0656.2,31.0
2021-12-17T23:20:00Z,00000200,01000000,0000.30,-000.02,0000.04,-000.22,0000.02,0000.35,0000.04,0000.26,0000.11,18.6,25.2,,00.0,0656.2,31.0
2021-12-17T23:21:00Z,00000200,01000000,0000.10,-000.02,-000.31,-000.62,0000.44,0000.15,0000.05,-000.36,-000.15,18.6,25.2,,00.0,0656.3,31.0
2021-12-17T23:22:00Z,00000200,01000000,0000.09,0000.34,-000.19,-000.07,0000.17,-000.28,0000.00,-000.01,0000.24,18.6,25.2,,00.0,0656.3,31.0
2021-12-17T23:23:00Z,00000200,01000000,0000.44,0000.22,0000.08,-000.29,0000.17,0000.36,-000.03,0000.09,-000.29,18.6,25.2,,00.0,0656.3,31.0
2021-12-17T23:24:00Z,00000200,01000000,0000.08,0000.11,-000.16,0000.75,0000.19,0000.42,0000.18,0000.01,0000.06,18.6,25.2,,00.0,0656.3,31.0
2021-12-17T23:25:00Z,00000200,01000000,-000.46,0000.15,0000.01,-000.46,-000.05,0000.35,-000.11,0000.34,0000.25,18.6,25.2,,00.0,0656.4,31.0
2021-12-17T23:26:00Z,00000200,01000000,0000.96,-000.26,0000.31,-000.46,0000.31,0000.30,0000.33,0000.07,-000.20,18.6,25.3,,00.0,0656.4,31.0
2021-12-17T23:27:00Z,00000200,01000000,-000.19,-000.12,0000.24,-000.20,0000.29,0000.58,-000.14,-000.01,0000.39,18.6,25.3,,00.0,0656.4,31.0
2021-12-17T23:28:00Z,00000200,01000000,0000.11,0000.02,0000.36,0000.22,0000.09,0000.21,-000.03,-000.11,-000.19,18.6,25.2,,00.0,0656.4,31.0
2021-12-17T23:29:00Z,00000200,01000000,-000.61,0000.11,0000.30,0000.39,0000.46,0000.22,-000.06,-000.16,-000.13,18.6,25.3,,00.0,0656.4,31.0
2021-12-17T23:30:00Z,00000200,01000000,0000.32,0000.63,-000.01,-000.20,0000.07,0000.15,-000.11,0000.33,-000.12,18.6,25.3,,00.0,0656.4,31.0
2021-12-17T23:31:00Z,00000200,01000000,0000.07,0000.01,0000.32,0000.23,0000.04,0000.18,0000.20,0000.18,0000.25,18.6,25.3,,00.0,0656.5,31.0
2021-12-17T23:32:00Z,00000200,01000000,0000.64,0000.08,-000.13,0000.20,0000.11,0000.30,-000.07,-000.42,-000.25,18.7,25.3,,00.0,0656.5,31.0
2021-12-17T23:33:00Z,00000200,01000000,-000.39,0000.23,0000.08,0000.41,0000.42,0000.34,0000.05,0000.12,0000.20,18.7,25.3,,00.0,0656.5,31.0
2021-12-17T23:34:00Z,00000200,01000000,0000.02,-000.02,0000.29,0000.27,0000.41,-000.06,0000.16,0000.01,0000.11,18.7,25.2,,00.0,0656.5,31.0
2021-12-17T23:35:00Z,00000200,01000000,-000.17,0000.24,-000.29,-000.00,0000.20,-000.04,0000.10,0000.17,0000.04,18.7,25.2,,00.0,0656.5,31.0
2021-12-17T23:36:00Z,00000200,01000000,0000.75,0000.11,0000.37,-000.18,0000.31,0000.29,-000.11,-000.08,-000.01,18.7,25.2,,00.0,0656.5,31.0
2021-12-17T23:37:00Z,00000200,01000000,0000.16,0000.05,-000.06,-000.41,0000.42,0000.15,0000.26,0000.47,0000.16,18.7,25.2,,00.0,0656.6,31.0
2021-12-17T23:38:00Z,00000200,01000000,0000.16,0000.52,0000.10,0000.27,0000.33,0000.01,-000.03,-000.56,-000.34,18.7,25.3,,00.0,0656.6,31.0
2021-12-17T23:39:00Z,00000200,01000000,0000.23,0000.09,0000.31,-000.34,0000.42,0000.32,-000.15,0000.24,0000.05,18.7,25.2,,00.0,0656.6,31.0
2021-12-17T23:40:00Z,00000200,01000000,0000.23,0000.14,-000.03,0000.13,-000.00,0000.28,0000.08,-000.20,-000.03,18.7,25.3,,00.0,0656.6,31.0
2021-12-17T23:41:00Z,00000200,01000000,0000.19,-000.20,0000.24,-000.24,-000.22,0000.21,-000.32,-000.24,0000.06,18.7,25.3,,00.0,0656.6,31.0
2021-12-17T23:42:00Z,00000200,01000000,0000.57,-000.13,-000.06,0000.09,-000.06,0000.23,0000.32,0000.28,0000.23,18.7,25.3,,00.0,0656.6,31.0
2021-12-17T23:43:00Z,00000200,01000000,0000.21,0000.05,0000.18,0000.79,0000.27,0000.07,-000.41,-000.00,-000.42,18.7,25.3,,00.0,0656.6,31.0
2021-12-17T23:44:00Z,00000200,01000000,0000.57,0000.13,-000.29,0000.06,0000.29,-000.17,0000.43,-000.15,0000.05,18.7,25.3,,00.0,0656.7,31.0
2021-12-17T23:45:00Z,00000200,01000000,-000.01,0000.03,0000.20,-000.39,0000.14,-000.17,0000.03,0000.41,0000.45,18.7,25.3,,00.0,0656.7,31.0
2021-12-17T23:46:00Z,00000200,01000000,-000.62,-000.03,0000.00,-000.81,0000.04,0000.04,0000.04,-000.35,-000.04,18.7,25.3,,00.0,0656.7,31.0
2021-12-17T23:47:00Z,00000200,01000000,0000.68,0000.17,-000.35,0000.02,0000.17,-000.12,-000.03,0000.33,0000.22,18.7,25.3,,00.0,0656.8,31.0
2021-12-17T23:48:00Z,00000200,01000000,-000.62,0000.12,0000.16,0000.13,0000.19,0000.35,0000.17,0000.22,-000.05,18.7,25.3,,00.0,0656.7,31.0
2021-12-17T23:49:00Z,00000200,01000000,-000.04,0000.35,-000.07,0000.23,0000.30,0000.35,0000.19,0000.06,0000.02,18.7,25.3,,00.0,0656.8,31.0
2021-12-17T23:50:00Z,00000200,01000000,0000.23,-000.05,-000.31,0000.03,0000.13,0000.12,-000.03,0000.29,0000.09,18.7,25.3,,00.0,0656.8,31.0
2021-12-17T23:51:00Z,00000200,01000000,0000.71,0000.25,-000.05,-000.08,0000.21,-000.06,-000.13,-000.55,0000.08,18.7,25.3,,00.0,0656.8,31.0
2021-12-17T23:52:00Z,00000200,01000000,-000.32,0000.45,0000.23,0000.11,0000.28,0000.10,0000.17,0000.17,-000.19,18.7,25.3,,00.0,0656.8,31.0
2021-12-17T23:53:00Z,00000200,01000000,0000.35,0000.18,-000.21,0000.26,0000.04,0000.21,-000.06,0000.23,-000.28,18.7,25.3,,00.0,0656.8,31.0
2021-12-17T23:54:00Z,00000200,01000000,0000.53,-000.03,0000.16,-000.45,-000.04,0000.32,0000.20,-000.04,-000.06,18.7,25.3,,00.0,0656.9,31.0
2021-12-17T23:55:00Z,00000200,01000000,-000.08,0000.08,-000.06,0000.21,0000.02,0000.51,-000.28,0000.15,0000.35,18.7,25.3,,00.0,0656.9,31.0
2021-12-17T23:56:00Z,00000200,01000000,-000.14,0000.11,0000.25,0000.17,0000.25,0000.33,0000.20,-000.57,-000.14,18.7,25.3,,00.0,0656.9,31.0
2021-12-17T23:57:00Z,00000200,41000000,,,,,,,0000.89,0001.30,0000.75,18.7,25.3,,00.0,0656.9,31.0
2021-12-17T23:58:00Z,00000200,61000000,,,,,,,-000.59,-000.44,-000.33,18.4,25.4,,00.0,0656.0,31.0
2021-12-17T23:59:00Z,00000200,21000000,,,,,,,-000.44,-000.27,-000.02,18.3,25.5,,00.0,0656.0,31.0
